sat.trackr.live / text

‹ back to catalog

QIANFAN-123

NORAD 68650 · 2026-075Q

PAYLOAD ACTIVE UNKNOWN

§ Identity

Operator
Country
PRC
Launch date
2026-04-07
Launch site
WSC
Launch vehicle
Mass (kg)
RCS (m²)

External: N2YO · Heavens-Above · Gunter

§ Orbital elements

Epoch: 2026-05-24T15:28:03.790848Z

Period
105.06 min
Inclination
88.9897°
Eccentricity
0.0011100
Mean motion
13.70625769 rev/d
Perigee alt
989.1 km
Apogee alt
1,005.5 km
Semi-major
7,375.5 km
B*
3.2817e-5
RAAN
323.4131°
Arg perigee
73.9826°
Mean anomaly
286.2558°
Rev number
659

§ Raw data

QIANFAN-1231 68650U 26075Q   26144.64448832  .00000042  00000+0  32817-4 0  99912 68650  88.9897 323.4131 0011100  73.9826 286.2558 13.70625769  6593

JSON: /api/v1/satellites/68650 · /tle

For live sub-satellite position, see the globe view (requires WebGL).

§ Visibility from observer

Set your observer location to see the next 7 days of passes ≥ 10°. The values pass through the URL so the page stays shareable.

No JS? Fill the form by hand. The geolocation button needs JavaScript.